FW9428 Weather Reports


time (UTC)temp
F
wind
direction
speed
knots
gust
knots
rain 1hr
in
rain 24hr
in
rain mn
in
humidity
%
barometer
mb
20260510082940 53 225 0.0 0.0 0.00 0.00 0.00 96 1011.7
20260510082439 53 244 0.0 0.0 0.00 0.00 0.00 96 1011.7
20260510081938 53 238 0.0 0.0 0.00 0.00 0.00 96 1011.6
20260510081434 53 243 0.0 0.0 0.00 0.00 0.00 96 1011.7
20260510080930 53 246 0.0 0.0 0.00 0.00 0.00 95 1011.7
20260510080429 54 235 0.0 0.0 0.00 0.00 0.00 93 1011.6
20260510075926 54 200 0.0 0.0 0.00 0.00 0.00 93 1011.6
20260510075424 55 221 0.0 0.0 0.00 0.00 0.00 92 1011.4
20260510074920 55 241 0.0 0.0 0.00 0.00 0.00 92 1011.6
20260510074417 56 239 0.0 0.0 0.00 0.00 0.00 91 1011.5
20260510073914 56 242 0.0 0.0 0.00 0.00 0.00 90 1011.6
20260510073409 57 237 0.0 0.0 0.00 0.00 0.00 89 1011.5
20260510072906 56 228 0.0 0.0 0.00 0.00 0.00 90 1011.5
20260510072403 57 239 0.0 0.0 0.00 0.00 0.00 89 1011.4
20260510071858 57 236 0.0 0.0 0.00 0.00 0.00 88 1011.4
20260510071355 57 230 0.9 0.9 0.00 0.00 0.00 89 1011.5
20260510070854 57 251 0.0 0.0 0.00 0.00 0.00 88 1011.6
20260510070350 57 237 0.0 0.0 0.00 0.00 0.00 89 1011.7
20260510065850 57 242 1.7 1.7 0.00 0.00 0.00 89 1011.6
20260510065347 56 250 0.0 0.0 0.00 0.00 0.00 90 1011.5
20260510064844 56 229 0.0 0.0 0.00 0.00 0.00 90 1011.6
20260510064342 57 247 0.0 0.0 0.00 0.00 0.00 89 1011.8
20260510063838 57 229 0.9 0.9 0.00 0.00 0.00 90 1011.9
20260510063334 57 234 0.0 0.0 0.00 0.00 0.00 88 1011.6
20260510062831 57 240 0.0 0.0 0.00 0.00 0.00 89 1011.4
20260510062326 57 233 0.0 0.0 0.00 0.00 0.00 88 1011.3
20260510061822 57 242 0.0 0.0 0.00 0.00 0.00 88 1011.7
20260510061319 57 239 0.0 0.0 0.00 0.00 0.00 88 1011.5
20260510060815 57 246 0.0 0.0 0.00 0.00 0.00 88 1011.7
20260510060313 57 249 0.0 0.0 0.00 0.00 0.00 88 1011.5
20260510055809 58 252 0.0 0.0 0.00 0.00 0.00 87 1011.7
20260510055308 58 258 0.0 0.0 0.00 0.00 0.00 86 1011.5
20260510054807 58 230 0.9 0.9 0.00 0.00 0.00 85 1011.7
20260510054303 59 241 0.0 0.0 0.00 0.00 0.00 85 1011.6
20260510053758 58 226 0.0 0.0 0.00 0.00 0.00 86 1011.8
20260510053254 59 244 0.0 0.0 0.00 0.00 0.00 84 1011.8
20260510052750 59 232 0.0 0.9 0.00 0.00 0.00 84 1012.0
20260510052246 58 237 0.0 0.9 0.00 0.00 0.00 85 1011.9
20260510051742 57 240 0.0 0.0 0.00 0.00 0.00 87 1011.8
20260510051239 58 236 0.9 1.7 0.00 0.00 0.00 86 1012.0
20260510050736 58 241 0.0 0.0 0.00 0.00 0.00 86 1012.1
20260510050233 57 234 0.0 0.0 0.00 0.00 0.00 87 1012.1
20260510045730 56 241 0.0 0.0 0.00 0.05 0.05 89 1011.9
20260510045226 56 242 0.0 0.0 0.00 0.05 0.05 90 1011.9
20260510044722 56 234 0.0 0.0 0.00 0.05 0.05 88 1011.8
20260510044221 56 221 0.9 1.7 0.00 0.05 0.05 90 1011.8
20260510043715 56 235 0.0 0.0 0.00 0.05 0.05 89 1011.9
20260510043213 57 246 0.0 0.0 0.00 0.05 0.05 88 1011.8
20260510042710 57 229 0.0 0.0 0.00 0.05 0.05 87 1011.7
20260510042206 58 242 0.0 0.0 0.00 0.05 0.05 86 1011.8
20260510041703 57 238 0.0 0.0 0.00 0.05 0.05 87 1011.6
20260510041200 57 237 0.0 0.9 0.00 0.05 0.05 87 1011.5
20260510040657 58 238 0.0 0.0 0.00 0.05 0.05 86 1011.4
20260510040154 57 240 0.9 1.7 0.00 0.05 0.05 84 1011.5
20260510035649 57 234 0.0 0.0 0.00 0.05 0.05 88 1011.4
20260510035145 57 234 0.0 0.0 0.00 0.05 0.05 87 1011.3
20260510034642 57 238 0.0 0.0 0.00 0.05 0.05 87 1011.5
20260510034139 57 257 0.0 0.0 0.00 0.05 0.05 86 1011.6
20260510033635 58 233 0.0 0.0 0.00 0.05 0.05 86 1011.4
20260510033133 58 250 0.0 0.0 0.00 0.05 0.05 86 1011.5
20260510032629 58 218 1.7 2.6 0.00 0.05 0.05 83 1011.0
20260510032124 57 237 0.0 0.0 0.00 0.05 0.05 85 1011.0
20260510031620 57 219 0.0 0.0 0.00 0.05 0.05 87 1011.0
20260510031117 56 320 0.0 0.0 0.00 0.05 0.05 90 1011.1
20260510030611 56 240 0.0 0.0 0.00 0.05 0.05 88 1011.1
20260510030109 57 318 0.0 0.0 0.00 0.05 0.05 88 1010.9
20260510025606 57 246 0.0 0.0 0.00 0.05 0.05 86 1011.1
20260510025104 58 251 0.0 0.0 0.00 0.05 0.05 85 1010.8
20260510024600 57 240 0.0 0.0 0.00 0.05 0.05 83 1010.8
20260510024056 57 252 0.0 0.0 0.00 0.05 0.05 87 1010.9
20260510023553 56 237 0.0 0.0 0.00 0.05 0.05 88 1010.9
20260510023050 56 246 0.0 0.0 0.00 0.05 0.05 90 1011.0
20260510022550 56 238 0.0 0.0 0.00 0.05 0.05 90 1010.9
20260510022044 56 246 0.0 0.0 0.00 0.05 0.05 90 1010.7
20260510021540 56 242 0.0 0.0 0.00 0.05 0.05 89 1010.8
20260510021038 57 235 0.0 0.0 0.00 0.05 0.05 88 1010.6
20260510020532 57 240 0.0 0.0 0.00 0.05 0.05 88 1010.6
20260510020028 57 253 0.0 0.0 0.00 0.05 0.05 87 1010.5
20260510015524 57 254 0.0 0.0 0.00 0.05 0.05 86 1010.4
20260510015020 57 237 0.0 0.0 0.00 0.05 0.05 86 1010.4
20260510014517 57 228 0.0 0.0 0.00 0.05 0.05 86 1010.3
20260510014014 57 237 0.0 0.0 0.00 0.05 0.05 87 1010.3
20260510013508 57 250 0.0 0.0 0.00 0.05 0.05 86 1010.3
20260510013005 58 240 0.0 0.0 0.00 0.05 0.05 86 1010.0
20260510012459 58 239 0.0 0.0 0.00 0.05 0.05 84 1010.0
20260510011954 58 244 0.0 0.0 0.00 0.05 0.05 84 1010.0
20260510011449 58 232 0.0 0.0 0.00 0.05 0.05 83 1010.0
20260510010945 59 246 0.0 0.0 0.00 0.05 0.05 82 1009.7
20260510010443 60 242 0.0 0.0 0.00 0.05 0.05 81 1009.8
20260510005940 60 236 0.0 0.0 0.00 0.05 0.05 80 1009.8
20260510005436 60 251 0.0 0.0 0.00 0.05 0.05 79 1009.6
20260510004933 61 246 0.0 0.0 0.00 0.05 0.05 77 1009.8
20260510004430 61 236 0.0 0.0 0.00 0.05 0.05 76 1009.7
20260510003928 62 251 0.0 0.0 0.00 0.05 0.05 75 1009.6
20260510003425 62 252 0.0 0.0 0.00 0.05 0.05 73 1009.6
20260510002924 63 249 0.0 0.0 0.00 0.05 0.05 72 1009.5
20260510002421 63 235 0.0 0.0 0.00 0.05 0.05 71 1009.4
20260510001918 64 235 0.0 0.0 0.00 0.05 0.05 71 1009.4
20260510001416 64 235 0.0 0.0 0.00 0.05 0.05 69 1009.4
20260510000913 65 246 0.0 0.0 0.00 0.05 0.05 68 1009.1
20260510000411 65 250 0.0 0.0 0.00 0.05 0.05 69 1009.1
20260509235905 65 233 0.0 0.0 0.00 0.05 0.05 69 1009.0
20260509235402 66 237 0.0 0.0 0.00 0.05 0.05 68 1009.1
20260509234858 66 218 1.7 1.7 0.00 0.05 0.05 64 1009.0
20260509234356 67 204 0.0 0.0 0.00 0.05 0.05 66 1009.0
20260509233854 67 234 2.6 2.6 0.00 0.05 0.05 65 1008.6
20260509233351 67 151 0.9 1.7 0.00 0.05 0.05 64 1008.8
20260509232846 67 252 0.0 0.0 0.00 0.05 0.05 65 1008.9
20260509232345 68 252 0.0 0.9 0.00 0.05 0.05 64 1008.9
20260509231840 68 241 0.0 0.0 0.00 0.05 0.05 63 1009.0
20260509231337 68 241 0.0 0.0 0.00 0.05 0.05 63 1008.8
20260509230835 68 240 0.0 0.9 0.00 0.05 0.05 62 1008.8
20260509230332 68 228 0.0 0.0 0.00 0.05 0.05 62 1009.0
20260509225827 68 239 0.9 0.9 0.00 0.05 0.05 62 1009.0
20260509225324 68 251 0.0 0.0 0.00 0.05 0.05 61 1009.1
20260509224820 68 244 0.0 0.0 0.00 0.05 0.05 60 1009.1
20260509224316 68 233 0.0 0.9 0.00 0.05 0.05 61 1008.9
20260509223813 68 258 1.7 2.6 0.00 0.05 0.05 60 1009.0
20260509223310 68 256 0.9 0.9 0.00 0.05 0.05 61 1009.3
20260509222807 69 252 0.9 1.7 0.00 0.05 0.05 60 1009.2
20260509222306 69 247 0.0 0.0 0.00 0.05 0.05 60 1009.2
20260509221758 69 267 0.0 0.0 0.00 0.05 0.05 61 1009.3
20260509221255 69 245 0.9 1.7 0.00 0.05 0.05 58 1009.2
20260509220751 69 306 0.0 0.9 0.00 0.05 0.05 59 1009.1
20260509220247 69 239 0.0 0.0 0.00 0.05 0.05 59 1009.3
20260509215742 69 199 0.0 0.0 0.00 0.05 0.05 58 1009.3
20260509215240 70 201 2.6 6.1 0.00 0.05 0.05 59 1009.3
20260509214736 70 197 2.6 2.6 0.00 0.05 0.05 59 1009.7
20260509214234 70 229 3.5 5.2 0.00 0.05 0.05 59 1009.1
20260509213731 69 228 0.9 0.9 0.00 0.05 0.05 62 1009.4
20260509213226 70 189 1.7 1.7 0.00 0.05 0.05 58 1009.5
20260509212724 70 261 2.6 4.3 0.00 0.05 0.05 60 1009.2
20260509212221 70 187 2.6 4.3 0.00 0.05 0.05 60 1009.2
20260509211717 70 221 2.6 4.3 0.00 0.05 0.05 58 1009.3
20260509211213 71 251 1.7 1.7 0.00 0.05 0.05 58 1009.3
20260509210710 71 213 1.7 1.7 0.00 0.05 0.05 58 1009.3
20260509210208 70 260 0.0 0.0 0.00 0.05 0.05 60 1009.4
20260509205707 70 203 1.7 1.7 0.00 0.05 0.05 59 1009.4
20260509205207 70 265 0.9 1.7 0.00 0.05 0.05 61 1009.5
20260509204703 70 260 2.6 4.3 0.00 0.05 0.05 60 1009.5
20260509204159 70 288 0.9 1.7 0.00 0.05 0.05 60 1009.4
20260509203655 68 266 0.9 0.9 0.00 0.05 0.05 62 1009.4
20260509203154 68 247 0.9 0.9 0.00 0.05 0.05 63 1009.5
20260509202649 69 242 1.7 1.7 0.00 0.05 0.05 61 1009.4
20260509202144 69 252 0.9 0.9 0.00 0.05 0.05 63 1009.6
20260509201640 68 249 0.9 0.9 0.00 0.05 0.05 64 1009.4
20260509201137 68 242 1.7 1.7 0.00 0.05 0.05 63 1009.6
20260509200633 69 227 1.7 1.7 0.00 0.05 0.05 60 1009.4
20260509200128 69 239 0.0 0.9 0.00 0.05 0.05 62 1009.4
20260509195624 68 234 0.9 1.7 0.00 0.05 0.05 62 1009.5
20260509195120 68 227 2.6 4.3 0.00 0.05 0.05 62 1009.9
20260509194619 69 239 2.6 2.6 0.00 0.05 0.05 63 1009.7
20260509194117 69 210 1.7 2.6 0.00 0.05 0.05 60 1009.8
20260509193612 70 266 1.7 1.7 0.00 0.05 0.05 60 1009.7
20260509193108 70 239 2.6 2.6 0.00 0.05 0.05 60 1009.7
20260509192606 69 295 0.9 0.9 0.00 0.05 0.05 61 1009.9
20260509192100 69 256 0.0 0.9 0.00 0.05 0.05 66 1009.4
20260509191555 67 252 1.7 1.7 0.00 0.05 0.05 65 1009.9
20260509191051 66 244 0.9 0.9 0.00 0.05 0.05 68 1009.9
20260509190548 66 279 0.9 1.7 0.00 0.05 0.05 68 1009.8
20260509190046 65 248 0.9 0.9 0.00 0.05 0.05 70 1010.0
20260509185543 65 236 0.0 0.0 0.00 0.05 0.05 72 1010.0
20260509185039 65 228 0.9 0.9 0.00 0.05 0.05 72 1009.9
20260509184537 65 244 0.9 1.7 0.00 0.05 0.05 71 1010.0
20260509184417 65 250 0.0 0.0 0.00 0.00 0.05 71 975.3
20260509184033 64 248 0.0 0.9 0.00 0.05 0.05 72 1010.0
20260509183917 64 251 0.0 0.0 0.00 0.00 0.05 72 975.3
20260509183529 64 252 0.0 0.9 0.00 0.05 0.05 74 1009.9
20260509183025 64 246 0.0 0.0 0.00 0.05 0.05 72 1009.8
20260509182918 64 246 0.0 0.0 0.00 0.00 0.05 72 975.3
20260509182521 64 233 0.0 0.0 0.00 0.05 0.05 74 1010.0
20260509182019 64 253 0.9 0.9 0.00 0.05 0.05 73 1010.0
20260509181517 64 251 0.9 0.9 0.00 0.05 0.05 77 1009.7
20260509181014 63 248 0.9 0.9 0.00 0.05 0.05 78 1010.1
20260509180509 62 248 0.0 0.0 0.00 0.05 0.05 80 1009.8
20260509180008 62 239 0.0 0.0 0.00 0.05 0.05 80 1010.1
20260509175502 62 215 1.7 2.6 0.00 0.05 0.05 77 1010.0
20260509174959 62 233 0.0 0.0 0.00 0.05 0.05 80 1010.2
20260509174456 61 218 1.7 1.7 0.00 0.05 0.05 82 1010.2
20260509173950 61 231 0.9 0.9 0.00 0.05 0.05 87 1010.2
20260509173451 61 200 1.7 1.7 0.00 0.05 0.05 87 1010.2
20260509172948 60 236 0.9 0.9 0.00 0.05 0.05 88 1010.3
20260509172445 60 239 0.0 0.0 0.00 0.05 0.05 88 1010.2
20260509171940 60 239 0.0 0.0 0.00 0.05 0.05 90 1010.5
20260509171436 59 235 0.0 0.0 0.00 0.05 0.05 90 1010.3
20260509170933 59 234 0.0 0.0 0.00 0.05 0.05 89 1010.6
20260509170428 59 224 0.0 0.0 0.00 0.05 0.05 89 1010.6
20260509165924 59 241 0.0 0.0 0.00 0.05 0.05 89 1010.6
20260509165419 59 240 0.0 0.0 0.00 0.05 0.05 88 1010.6
20260509164914 59 240 0.0 0.0 0.00 0.05 0.05 89 1010.8
20260509164411 59 239 0.0 0.0 0.00 0.05 0.05 88 1010.6
20260509163907 59 238 0.0 0.0 0.00 0.05 0.05 87 1010.6
20260509163404 60 240 0.0 0.0 0.00 0.05 0.05 89 1010.2
20260509162903 60 253 0.0 0.0 0.00 0.05 0.05 88 1010.5
20260509162402 60 258 0.0 0.0 0.00 0.05 0.05 86 1010.2
20260509161857 60 246 0.0 0.0 0.00 0.05 0.05 88 1010.4
20260509161354 59 244 0.0 0.0 0.00 0.05 0.05 87 1010.5
20260509160850 59 242 0.0 0.0 0.00 0.05 0.05 89 1010.2
20260509160346 59 258 0.0 0.0 0.00 0.05 0.05 89 1010.5
20260509155841 58 251 0.0 0.0 0.00 0.05 0.05 93 1010.3
20260509155338 58 252 0.0 0.0 0.00 0.05 0.05 91 1010.3
20260509154834 59 257 0.0 0.0 0.00 0.05 0.05 93 1010.4
20260509154331 59 255 0.0 0.0 0.00 0.05 0.05 93 1010.5
20260509153828 58 248 0.0 0.0 0.00 0.05 0.05 92 1010.5
20260509153324 57 253 0.0 0.0 0.00 0.05 0.05 92 1010.5
20260509152821 58 246 0.0 0.0 0.00 0.05 0.05 93 1010.6
20260509152317 57 256 0.0 0.9 0.00 0.05 0.05 93 1010.6
20260509151815 57 251 0.0 0.0 0.00 0.05 0.05 94 1010.4
20260509151310 57 250 0.0 0.0 0.00 0.05 0.05 94 1010.8
20260509150809 57 240 0.0 0.0 0.00 0.05 0.05 94 1010.6
20260509150307 57 269 0.9 0.9 0.00 0.05 0.05 97 1010.8
20260509145804 57 247 0.0 0.0 0.00 0.05 0.05 96 1010.8
20260509145306 57 247 0.0 0.0 0.00 0.05 0.05 97 1010.8
20260509144800 57 240 0.0 0.0 0.00 0.05 0.05 99 1010.9
20260509144257 56 255 0.0 0.0 0.00 0.05 0.05 99 1011.0
20260509143754 56 253 0.0 0.0 0.00 0.05 0.05 99 1010.8
20260509143252 55 255 0.0 0.0 0.00 0.05 0.05 99 1010.6
20260509143120 55 272 0.0 0.0 0.00 0.00 0.05 99 976.0
20260509142747 56 248 0.0 0.0 0.00 0.05 0.05 99 1010.7
20260509142244 56 262 0.0 0.0 0.00 0.05 0.05 99 1010.4
20260509141739 55 253 0.0 0.0 0.00 0.05 0.05 99 1010.8
20260509141237 55 253 0.0 0.0 0.00 0.05 0.05 99 1010.4
20260509140733 55 297 0.0 0.9 0.00 0.05 0.05 99 1010.5
20260509140231 55 251 0.0 0.0 0.00 0.05 0.05 99 1010.5
20260509135728 55 255 0.0 0.0 0.00 0.05 0.05 99 1010.8
20260509135226 55 243 0.0 0.0 0.00 0.05 0.05 99 1010.9
20260509134722 55 251 0.0 0.0 0.00 0.05 0.05 99 1010.8
20260509134220 55 251 0.0 0.0 0.07 0.05 0.05 99 1011.0
20260509133717 54 251 0.0 0.0 0.07 0.05 0.05 99 1011.0
20260509133214 54 260 0.0 0.0 0.00 0.04 0.04 99 1011.1
20260509132712 54 254 0.0 0.0 0.00 0.04 0.04 99 1011.1
20260509132211 54 251 0.0 0.0 0.00 0.04 0.04 99 1011.1
20260509131706 54 247 0.0 0.0 0.00 0.04 0.04 99 1011.1
20260509131203 54 243 0.0 0.0 0.00 0.04 0.04 99 1011.3
20260509130659 54 237 0.0 0.0 0.00 0.04 0.04 99 1011.0
20260509130155 54 252 0.0 0.0 0.00 0.04 0.04 99 1011.3
20260509125652 53 253 0.0 0.0 0.00 0.04 0.04 99 1011.3
20260509125149 53 274 0.0 0.0 0.00 0.04 0.04 99 1011.1
20260509124646 53 265 0.0 0.0 0.00 0.04 0.04 99 1011.1
20260509124142 53 253 0.0 0.0 0.00 0.04 0.04 99 1011.0
20260509123640 53 252 0.0 0.0 0.00 0.04 0.04 99 1011.3
20260509123137 53 252 0.0 0.0 0.00 0.04 0.04 99 1011.6
20260509122633 53 249 0.0 0.0 0.00 0.04 0.04 99 1011.3
20260509122130 52 249 0.0 0.0 0.05 0.04 0.04 99 1011.3
20260509121626 52 247 0.0 0.0 0.05 0.04 0.04 99 1011.1
20260509121124 52 250 0.0 0.0 0.05 0.04 0.04 99 1011.3
20260509120622 52 240 0.0 0.0 0.00 0.03 0.03 99 1011.1
20260509120120 52 251 0.0 0.0 0.07 0.03 0.03 99 1011.5
20260509115617 52 254 0.0 0.0 0.07 0.03 0.03 99 1011.4
20260509115115 52 264 0.0 0.0 0.00 0.02 0.02 99 1011.3
20260509114613 52 247 0.0 0.0 0.00 0.02 0.02 99 1011.5
20260509114112 52 264 0.0 0.0 0.00 0.02 0.02 99 1011.5
20260509113609 52 249 0.0 0.0 0.00 0.02 0.02 99 1011.5
20260509113107 52 251 0.0 0.0 0.05 0.02 0.02 99 1011.4
20260509112603 52 246 0.0 0.0 0.05 0.02 0.02 99 1011.5
20260509112100 52 254 0.0 0.0 0.00 0.01 0.01 99 1011.3
20260509111557 52 244 0.0 0.0 0.00 0.01 0.01 99 1011.6
20260509111054 52 247 0.0 0.0 0.00 0.01 0.01 99 1011.3
20260509110551 52 249 0.0 0.0 0.00 0.01 0.01 99 1010.8
20260509110048 52 251 0.0 0.0 0.00 0.01 0.01 99 1011.0
20260509105546 51 259 0.0 0.0 0.00 0.01 0.01 99 1010.8
20260509105044 51 252 0.0 0.0 0.00 0.01 0.01 99 1011.0
20260509104540 51 244 0.0 0.0 0.00 0.01 0.01 99 1011.1
20260509104037 51 265 0.0 0.0 0.00 0.01 0.01 99 1010.5
20260509103535 52 248 0.0 0.0 0.00 0.01 0.01 99 1010.8
20260509103033 52 292 0.0 0.0 0.00 0.01 0.01 99 1010.8
20260509102530 52 249 0.0 0.0 0.00 0.01 0.01 99 1010.8
20260509102027 52 249 0.0 0.0 0.00 0.01 0.01 99 1010.8
20260509101523 52 250 0.0 0.0 0.00 0.01 0.01 99 1010.8
20260509101020 52 251 0.0 0.9 0.00 0.01 0.01 99 1010.6
20260509100517 52 249 0.0 0.0 0.00 0.01 0.01 99 1010.7
20260509100015 52 249 0.0 0.0 0.00 0.01 0.01 99 1011.0
20260509095511 52 261 0.0 0.0 0.00 0.01 0.01 98 1011.0
20260509095009 52 260 0.0 0.0 0.00 0.01 0.01 98 1010.9
20260509094504 52 248 0.0 0.0 0.00 0.01 0.01 97 1010.9
20260509094002 53 247 0.0 0.0 0.00 0.01 0.01 96 1010.9
20260509093500 53 242 0.0 0.0 0.00 0.01 0.01 95 1011.1
20260509092957 53 242 0.0 0.0 0.00 0.01 0.01 94 1011.1
20260509092455 53 256 0.0 0.0 0.00 0.01 0.01 93 1011.1
20260509091953 54 247 0.0 0.0 0.07 0.01 0.01 92 1011.0
20260509091450 54 244 0.0 0.0 0.07 0.01 0.01 90 1011.3
20260509090947 54 246 0.0 0.0 0.00 0.00 0.00 88 1011.3
20260509090444 55 252 0.0 0.0 0.00 0.00 0.00 87 1011.5
20260509085942 55 254 0.0 0.0 0.00 0.00 0.00 83 1011.5
20260509085439 55 263 0.0 0.9 0.00 0.00 0.00 84 1011.4
20260509084935 55 244 0.0 0.0 0.00 0.00 0.00 83 1011.5
20260509084432 56 255 0.9 0.9 0.00 0.00 0.00 81 1011.5
20260509083929 57 248 0.0 0.0 0.00 0.00 0.00 80 1011.4
20260509083426 57 245 0.9 0.9 0.00 0.00 0.00 76 1011.7